GW3733 Weather Reports


time (UTC)temp
F
wind
direction
speed
knots
gust
knots
rain 1hr
in
rain 24hr
in
rain mn
in
humidity
%
barometer
mb
20260506183537 68 4 0.0 0.0 0.00 0.05 0.05 81 1003.6
20260506183034 68 5 0.0 0.0 0.00 0.05 0.05 82 1003.5
20260506182531 67 343 0.9 1.7 0.00 0.05 0.05 83 1003.4
20260506182028 66 10 0.0 0.0 0.00 0.05 0.05 85 1003.7
20260506181526 66 1 0.0 0.0 0.00 0.05 0.05 86 1003.6
20260506181023 66 351 0.0 0.0 0.00 0.05 0.05 87 1003.7
20260506180520 66 1 0.0 0.0 0.00 0.05 0.05 89 1003.7
20260506180016 65 5 0.9 0.9 0.00 0.05 0.05 89 1004.0
20260506175513 65 347 0.0 0.9 0.00 0.05 0.05 88 1003.8
20260506175009 66 359 0.0 0.0 0.00 0.05 0.05 88 1003.8
20260506174508 66 358 0.0 0.0 0.00 0.05 0.05 88 1003.7
20260506174003 65 1 0.0 0.0 0.00 0.05 0.05 89 1003.6
20260506173501 65 0 0.0 0.0 0.00 0.05 0.05 89 1003.7
20260506172958 65 5 0.0 0.0 0.00 0.05 0.05 88 1003.6
20260506172455 66 5 0.0 0.0 0.00 0.05 0.05 87 1003.7
20260506171951 65 3 0.0 0.0 0.00 0.05 0.05 85 1003.6
20260506171449 66 3 1.7 1.7 0.00 0.05 0.05 84 1003.6
20260506170947 66 0 0.0 0.0 0.00 0.05 0.05 85 1003.6
20260506170443 66 355 0.0 0.0 0.00 0.05 0.05 85 1003.4
20260506165936 66 356 0.0 0.0 0.00 0.05 0.05 84 1003.6
20260506165434 66 334 0.0 0.0 0.00 0.05 0.05 84 1003.6
20260506164929 66 350 0.0 0.0 0.00 0.05 0.05 84 1003.3
20260506164427 66 334 0.0 0.9 0.00 0.05 0.05 83 1003.5
20260506163919 66 355 0.9 0.9 0.00 0.05 0.05 83 1003.4
20260506163413 66 345 0.0 0.0 0.00 0.05 0.05 83 1003.3
20260506162908 66 338 0.0 0.0 0.00 0.05 0.05 83 1003.3
20260506162407 66 315 0.0 0.9 0.00 0.05 0.05 83 1003.4
20260506161904 66 1 0.0 0.0 0.00 0.05 0.05 82 1003.4
20260506161401 66 272 1.7 1.7 0.00 0.05 0.05 82 1003.3
20260506160853 66 299 1.7 2.6 0.00 0.05 0.05 82 1003.5
20260506160350 66 356 0.0 0.0 0.00 0.05 0.05 82 1003.4
20260506155848 66 334 0.9 0.9 0.00 0.05 0.05 82 1003.3
20260506155344 66 11 0.0 0.0 0.00 0.05 0.05 80 1003.2
20260506153456 66 265 0.9 1.7 0.00 0.05 0.05 80 1003.3
20260506152953 66 2 0.0 0.0 0.00 0.05 0.05 81 1003.3
20260506152450 66 8 0.9 0.9 0.00 0.05 0.05 80 1003.4
20260506151948 66 334 1.7 3.5 0.00 0.05 0.05 82 1003.4
20260506151445 66 298 1.7 1.7 0.00 0.05 0.05 82 1003.5
20260506150943 66 320 0.9 0.9 0.00 0.05 0.05 83 1003.3
20260506150438 66 122 5.2 7.0 0.00 0.05 0.05 81 1003.4
20260506145936 66 351 0.9 0.9 0.00 0.05 0.05 83 1003.3
20260506145432 65 1 0.0 0.0 0.00 0.05 0.05 89 1003.2
20260506144930 64 342 0.0 0.0 0.00 0.05 0.05 88 1003.3
20260506144426 63 31 1.7 3.5 0.00 0.05 0.05 89 1003.2
20260506143925 63 224 0.9 0.9 0.00 0.05 0.05 90 1003.5
20260506143421 62 354 0.0 0.0 0.00 0.05 0.05 93 1003.5
20260506142920 61 54 0.9 1.7 0.00 0.05 0.05 90 1003.5
20260506142417 62 346 0.0 0.9 0.00 0.05 0.05 93 1003.4
20260506141915 61 9 0.0 0.0 0.00 0.05 0.05 95 1003.4
20260506141413 60 324 0.0 0.0 0.00 0.05 0.05 97 1003.4
20260506140911 60 346 0.0 0.0 0.00 0.05 0.05 98 1003.6
20260506140408 59 353 0.0 0.0 0.00 0.05 0.05 99 1003.5
20260506135905 59 336 0.0 0.0 0.00 0.05 0.05 99 1003.6
20260506135402 59 330 0.0 0.9 0.00 0.05 0.05 99 1003.7
20260506134858 58 6 0.0 0.9 0.00 0.05 0.05 99 1003.7
20260506134354 58 353 0.0 0.0 0.00 0.05 0.05 99 1003.8
20260506133851 58 352 0.0 0.0 0.00 0.05 0.05 99 1004.0
20260506133348 58 12 0.0 0.0 0.00 0.05 0.05 99 1004.2
20260506132844 58 15 0.0 0.0 0.00 0.05 0.05 99 1004.0
20260506132342 58 89 0.9 1.7 0.00 0.05 0.05 99 1003.9
20260506131840 58 8 0.0 0.0 0.00 0.05 0.05 99 1004.1
20260506131336 58 0 0.0 0.0 0.00 0.05 0.05 99 1004.3
20260506130833 57 6 0.0 0.0 0.00 0.05 0.05 99 1003.9
20260506130329 58 357 0.0 0.0 0.00 0.05 0.05 99 1003.8
20260506125827 58 6 0.0 0.0 0.00 0.05 0.05 99 1003.6
20260506125325 57 324 0.9 0.9 0.07 0.05 0.05 99 1003.5
20260506124824 57 8 0.0 0.0 0.07 0.05 0.05 99 1003.7
20260506124320 58 359 0.0 0.0 0.05 0.04 0.04 99 1003.8
20260506123818 58 359 0.0 0.0 0.05 0.04 0.04 99 1003.8
20260506123316 58 4 0.0 0.0 0.07 0.03 0.03 99 1003.9
20260506122813 58 14 0.0 0.0 0.07 0.03 0.03 98 1003.9
20260506122310 58 13 0.0 0.0 0.00 0.02 0.02 98 1004.0
20260506121808 58 13 0.0 0.0 0.00 0.02 0.02 98 1003.9
20260506121304 58 13 0.0 0.0 0.05 0.02 0.02 98 1004.2
20260506120802 58 13 0.0 0.0 0.05 0.02 0.02 97 1004.0
20260506120300 58 12 0.0 0.0 0.00 0.01 0.01 97 1004.2
20260506115757 58 12 0.0 0.0 0.00 0.01 0.01 97 1004.2
20260506115255 58 12 0.0 0.0 0.00 0.01 0.01 97 1004.3
20260506114753 58 12 0.0 0.0 0.00 0.01 0.01 96 1004.1
20260506114250 58 10 0.0 0.0 0.00 0.01 0.01 96 1004.2
20260506113748 58 10 0.0 0.0 0.00 0.01 0.01 96 1004.2
20260506113246 58 11 0.0 0.0 0.07 0.01 0.01 95 1004.0
20260506112742 57 11 0.0 0.0 0.07 0.01 0.01 94 1004.2
20260506112240 58 11 0.0 0.0 0.00 0.00 0.00 93 1004.0
20260506111737 58 13 0.0 0.0 0.00 0.00 0.00 93 1004.1
20260506111235 58 2 0.0 0.0 0.00 0.00 0.00 91 1004.4
20260506110731 58 0 0.0 0.0 0.00 0.00 0.00 90 1004.2
20260506110229 59 359 0.0 0.0 0.00 0.00 0.00 89 1004.2
20260506105725 59 2 0.0 0.0 0.00 0.00 0.00 86 1004.2
20260506105223 59 2 0.0 0.0 0.00 0.00 0.00 84 1003.9
20260506104721 59 9 0.0 0.0 0.00 0.00 0.00 80 1003.8
20260506104218 60 358 0.0 0.0 0.00 0.00 0.00 80 1003.7
20260506103715 60 358 0.0 0.0 0.00 0.00 0.00 79 1003.8
20260506103211 60 358 0.0 0.0 0.00 0.00 0.00 77 1004.0
20260506102710 60 358 0.0 0.0 0.00 0.00 0.00 76 1003.7
20260506102208 60 358 0.0 0.0 0.00 0.00 0.00 73 1003.9
20260506101704 61 358 0.0 0.0 0.00 0.00 0.00 73 1003.7
20260506101200 61 357 0.0 0.0 0.00 0.00 0.00 74 1003.5
20260506100659 61 10 0.0 0.0 0.00 0.00 0.00 70 1003.4
20260506100156 61 356 0.0 0.0 0.00 0.00 0.00 68 1003.3
20260506095655 62 355 0.0 0.0 0.00 0.00 0.00 70 1003.3
20260506095151 62 4 0.0 0.0 0.00 0.00 0.00 64 1003.5
20260506094649 63 8 0.0 0.0 0.00 0.00 0.00 65 1003.2
20260506094146 63 357 0.0 0.0 0.00 0.00 0.00 63 1003.3
20260506093645 63 355 0.0 0.0 0.00 0.00 0.00 64 1003.3
20260506093142 63 8 0.0 0.0 0.00 0.00 0.00 62 1003.2
20260506092639 63 356 0.0 0.0 0.00 0.00 0.00 61 1003.2
20260506092136 64 10 0.0 0.0 0.00 0.00 0.00 62 1003.2
20260506091634 63 18 0.0 0.0 0.00 0.00 0.00 61 1003.4
20260506091131 63 357 0.0 0.0 0.00 0.00 0.00 61 1003.6
20260506090630 63 0 0.0 0.0 0.00 0.00 0.00 62 1003.7
20260506090125 63 357 0.0 0.0 0.00 0.00 0.00 62 1003.7
20260506085623 63 356 0.0 0.0 0.00 0.00 0.00 62 1003.6
20260506085119 63 5 0.0 0.0 0.00 0.00 0.00 60 1003.4
20260506084615 63 358 0.0 0.0 0.00 0.00 0.00 62 1003.4
20260506084112 63 358 0.0 0.0 0.00 0.00 0.00 62 1003.6
20260506083609 63 358 0.0 0.0 0.00 0.00 0.00 63 1003.5
20260506083107 63 353 0.0 0.0 0.00 0.00 0.00 61 1003.6
20260506082603 63 17 0.0 0.0 0.00 0.00 0.00 61 1003.8
20260506082059 64 1 0.0 0.0 0.00 0.00 0.00 60 1003.7
20260506081557 64 357 0.0 0.9 0.00 0.00 0.00 60 1003.6
20260506081054 64 8 0.0 0.0 0.00 0.00 0.00 58 1003.7
20260506080552 64 37 0.0 0.0 0.00 0.00 0.00 58 1003.6
20260506073032 65 314 0.9 0.9 0.00 0.00 0.00 55 1003.7
20260506072530 65 0 0.0 0.9 0.00 0.00 0.00 56 1003.6
20260506072027 65 0 0.0 0.0 0.00 0.00 0.00 55 1003.8
20260506071525 65 351 0.0 0.0 0.00 0.00 0.00 57 1003.8
20260506071022 65 2 0.0 0.0 0.00 0.00 0.00 56 1003.6
20260506070519 65 345 0.0 0.0 0.00 0.00 0.00 56 1003.8
20260506062457 65 356 0.0 0.0 0.00 0.00 0.00 54 1004.2
20260506061953 66 261 0.9 1.7 0.00 0.00 0.00 54 1004.4
20260506061449 65 3 0.0 0.0 0.00 0.00 0.00 53 1004.4
20260506060947 66 3 0.9 1.7 0.00 0.00 0.00 51 1004.5
20260506060445 66 357 0.0 0.0 0.00 0.00 0.00 52 1004.5
20260506050914 66 64 0.0 1.7 0.00 0.00 0.00 52 1005.4
20260506050412 66 1 0.0 0.0 0.00 0.00 0.00 50 1005.6
20260506044902 67 12 0.0 0.0 0.00 0.00 0.00 49 1005.6
20260506044400 67 358 0.0 0.0 0.00 0.00 0.00 49 1005.4
20260506043857 67 5 0.0 0.0 0.00 0.00 0.00 49 1005.5
20260506043354 67 1 0.0 0.0 0.00 0.00 0.00 48 1005.4
20260506042852 68 2 0.0 0.0 0.00 0.00 0.00 48 1005.2
20260506042351 68 358 0.0 0.9 0.00 0.00 0.00 50 1005.3
20260506041849 68 354 0.0 0.0 0.00 0.00 0.00 48 1005.4
20260506041346 68 346 0.0 0.9 0.00 0.00 0.00 45 1005.5
20260506040843 68 19 0.9 0.9 0.00 0.00 0.00 44 1005.4
20260506040340 69 14 0.0 0.0 0.00 0.00 0.00 44 1005.3
20260506035836 69 336 0.0 0.9 0.00 0.00 0.00 45 1005.4
20260506035334 69 21 0.0 0.9 0.00 0.00 0.00 47 1005.3
20260506034831 69 359 0.0 0.0 0.00 0.00 0.00 46 1005.3
20260506034328 69 318 0.9 1.7 0.00 0.00 0.00 43 1005.4
20260506033825 69 5 0.0 0.0 0.00 0.00 0.00 46 1005.5
20260506033322 70 355 0.0 0.0 0.00 0.00 0.00 43 1005.3
20260506032819 69 39 1.7 1.7 0.00 0.00 0.00 44 1005.6
20260506032316 70 354 0.0 0.0 0.00 0.00 0.00 44 1005.4
20260506031812 70 336 0.9 0.9 0.00 0.00 0.00 43 1005.4
20260506031310 70 357 0.0 0.0 0.00 0.00 0.00 43 1005.3
20260506030807 70 353 1.7 1.7 0.00 0.00 0.00 43 1005.4
20260506030305 70 266 3.5 5.2 0.00 0.00 0.00 42 1005.4
20260506025802 70 330 0.9 0.9 0.00 0.00 0.00 44 1005.4
20260506025258 70 27 0.0 0.0 0.00 0.00 0.00 43 1005.4
20260506024755 70 233 0.9 1.7 0.00 0.00 0.00 42 1005.5
20260506024252 70 36 0.9 0.9 0.00 0.00 0.00 45 1005.6
20260506023748 71 2 0.0 0.9 0.00 0.00 0.00 42 1005.4
20260506023245 70 354 0.0 0.0 0.00 0.00 0.00 44 1005.6
20260506022742 70 342 1.7 1.7 0.00 0.00 0.00 43 1005.5
20260506022240 71 326 0.9 0.9 0.00 0.00 0.00 44 1005.5
20260506021738 71 29 0.0 0.0 0.00 0.00 0.00 42 1005.5
20260506021234 70 193 1.7 1.7 0.00 0.00 0.00 43 1005.6
20260506020731 71 277 0.9 1.7 0.00 0.00 0.00 44 1005.4
20260506020229 70 29 0.9 1.7 0.00 0.00 0.00 44 1005.2
20260506015726 70 326 0.9 0.9 0.00 0.00 0.00 43 1005.4
20260506015224 70 194 1.7 1.7 0.00 0.00 0.00 43 1005.3
20260506014721 70 7 0.0 0.0 0.00 0.00 0.00 43 1005.3
20260506014217 69 357 0.0 0.0 0.00 0.00 0.00 46 1005.3
20260506013714 70 351 0.0 0.0 0.00 0.00 0.00 46 1005.3
20260506013211 70 322 0.0 0.9 0.00 0.00 0.00 43 1005.2
20260506012707 70 3 0.9 0.9 0.00 0.00 0.00 43 1005.4
20260506012205 69 348 0.9 0.9 0.00 0.00 0.00 42 1005.4
20260506011702 70 8 0.0 0.0 0.00 0.00 0.00 43 1005.4
20260506011158 70 236 3.5 3.5 0.00 0.00 0.00 41 1005.3
20260506010657 70 316 0.0 0.0 0.00 0.00 0.00 44 1005.3
20260506010153 70 356 0.0 0.0 0.00 0.00 0.00 43 1005.2
20260506005650 69 152 1.7 2.6 0.00 0.00 0.00 41 1005.0
20260506005147 70 1 0.0 0.0 0.00 0.00 0.00 42 1005.1
20260506004643 70 304 0.9 0.9 0.00 0.00 0.00 43 1005.2
20260506004141 71 1 0.9 0.9 0.00 0.00 0.00 42 1004.8
20260506003637 71 331 0.0 0.9 0.00 0.00 0.00 41 1004.9
20260506003133 71 45 2.6 2.6 0.00 0.00 0.00 40 1005.0
20260506002629 72 345 0.9 0.9 0.00 0.00 0.00 43 1004.8
20260506002125 72 285 0.9 1.7 0.00 0.00 0.00 40 1004.5
20260506001621 72 192 1.7 2.6 0.00 0.00 0.00 39 1004.9
20260506001119 72 51 2.6 3.5 0.00 0.00 0.00 39 1004.4
20260506000616 73 37 1.7 2.6 0.00 0.00 0.00 40 1004.7
20260506000113 73 317 0.0 0.0 0.00 0.00 0.00 42 1004.7
20260505235611 73 318 0.0 0.9 0.00 0.00 0.00 43 1004.4
20260505235108 73 336 0.0 0.9 0.00 0.00 0.00 42 1004.4
20260505234605 73 298 0.9 0.9 0.00 0.00 0.00 43 1004.3
20260505234101 74 5 0.9 1.7 0.00 0.00 0.00 42 1004.3
20260505233559 74 251 2.6 2.6 0.00 0.00 0.00 41 1004.3
20260505233056 74 349 0.9 0.9 0.00 0.00 0.00 41 1004.3
20260505232554 74 335 1.7 1.7 0.00 0.00 0.00 39 1004.2
20260505232051 75 356 0.9 0.9 0.00 0.00 0.00 39 1004.4
20260505231548 75 201 3.5 6.1 0.00 0.00 0.00 39 1004.3
20260505231047 75 228 1.7 1.7 0.00 0.00 0.00 37 1004.1
20260505230544 75 179 3.5 3.5 0.00 0.00 0.00 38 1004.2
20260505230040 76 102 0.9 1.7 0.00 0.00 0.00 38 1004.2
20260505225537 77 314 1.7 2.6 0.00 0.00 0.00 36 1004.4
20260505225033 77 232 1.7 2.6 0.00 0.00 0.00 36 1004.2
20260505224531 77 344 0.9 1.7 0.00 0.00 0.00 37 1004.3
20260505224028 77 358 1.7 1.7 0.00 0.00 0.00 34 1004.4
20260505223525 77 294 1.7 2.6 0.00 0.00 0.00 35 1004.2
20260505223021 77 117 2.6 5.2 0.00 0.00 0.00 34 1004.4
20260505222517 77 7 0.0 0.0 0.00 0.00 0.00 35 1004.4
20260505222013 77 291 1.7 1.7 0.00 0.00 0.00 35 1004.4
20260505221511 77 319 0.9 1.7 0.00 0.00 0.00 37 1004.2
20260505221007 77 9 0.9 0.9 0.00 0.00 0.00 35 1004.2
20260505220504 77 9 0.0 0.9 0.00 0.00 0.00 35 1004.0
20260505220002 78 37 0.9 0.9 0.00 0.00 0.00 35 1004.3
20260505215500 78 1 0.0 0.0 0.00 0.00 0.00 36 1004.2
20260505214957 79 250 3.5 5.2 0.00 0.00 0.00 36 1003.9
20260505214455 79 317 0.9 1.7 0.00 0.00 0.00 36 1003.9
20260505213952 79 45 1.7 2.6 0.00 0.00 0.00 36 1004.1
20260505213450 79 346 5.2 6.1 0.00 0.00 0.00 33 1004.0
20260505212946 79 8 0.9 0.9 0.00 0.00 0.00 36 1004.0
20260505212443 79 324 0.0 0.0 0.00 0.00 0.00 37 1004.0
20260505211939 79 321 0.9 1.7 0.00 0.00 0.00 34 1003.9
20260505211437 79 310 2.6 2.6 0.00 0.00 0.00 33 1003.8
20260505210933 80 248 2.6 5.2 0.00 0.00 0.00 33 1003.8
20260505210430 80 199 3.5 5.2 0.00 0.00 0.00 35 1004.1
20260505205927 81 354 0.9 0.9 0.00 0.00 0.00 31 1003.7
20260505205426 81 337 0.9 1.7 0.00 0.00 0.00 28 1003.7
20260505204922 81 351 0.9 0.9 0.00 0.00 0.00 31 1003.8
20260505204420 82 267 2.6 2.6 0.00 0.00 0.00 28 1003.6
20260505203917 81 341 0.9 1.7 0.00 0.00 0.00 31 1003.8
20260505203413 80 330 1.7 1.7 0.00 0.00 0.00 35 1003.8
20260505202910 80 23 2.6 3.5 0.00 0.00 0.00 33 1004.0
20260505202406 80 282 2.6 3.5 0.00 0.00 0.00 33 1003.9
20260505201902 80 355 0.0 0.9 0.00 0.00 0.00 35 1004.0
20260505201400 80 312 1.7 2.6 0.00 0.00 0.00 35 1003.8
20260505200858 81 116 0.9 1.7 0.00 0.00 0.00 32 1004.0
20260505200355 81 315 0.9 0.9 0.00 0.00 0.00 36 1004.1
20260505195850 80 105 1.7 3.5 0.00 0.00 0.00 31 1004.1
20260505195348 81 340 1.7 2.6 0.00 0.00 0.00 32 1004.1
20260505194845 81 271 1.7 2.6 0.00 0.00 0.00 36 1004.0
20260505194342 82 304 2.6 2.6 0.00 0.00 0.00 32 1004.0
20260505193837 82 229 2.6 3.5 0.00 0.00 0.00 33 1004.1
20260505193335 82 234 0.9 0.9 0.00 0.00 0.00 31 1004.1
20260505192833 83 340 1.7 1.7 0.00 0.00 0.00 31 1004.4
20260505192331 83 206 2.6 3.5 0.00 0.00 0.00 30 1004.0
20260505191828 83 320 0.9 1.7 0.00 0.00 0.00 34 1004.1
20260505191327 82 309 1.7 2.6 0.00 0.00 0.00 33 1004.0
20260505190823 82 311 1.7 2.6 0.00 0.00 0.00 34 1004.1
20260505190318 81 49 2.6 5.2 0.00 0.00 0.00 33 1004.8
20260505185814 82 250 0.9 1.7 0.00 0.00 0.00 33 1004.4
20260505185311 80 322 1.7 1.7 0.00 0.00 0.00 35 1004.7
20260505184807 82 32 1.7 2.6 0.00 0.00 0.00 33 1004.7
20260505184304 82 358 0.0 0.0 0.00 0.00 0.00 33 1004.9
20260505183801 82 310 0.9 0.9 0.00 0.00 0.00 35 1004.9